sat.trackr.live / text

‹ back to catalog

HAIYANG-2B

NORAD 43655 · 2018-081A

PAYLOAD ACTIVE UNKNOWN

§ Identity

Operator
Country
PRC
Launch date
2018-10-24
Launch site
TAISC
Launch vehicle
Mass (kg)
RCS (m²)

External: N2YO · Heavens-Above · Gunter

§ Orbital elements

Epoch: 2026-05-25T04:02:15.352800Z

Period
104.40 min
Inclination
99.3297°
Eccentricity
0.0001314
Mean motion
13.79306559 rev/d
Perigee alt
965.4 km
Apogee alt
967.3 km
Semi-major
7,344.5 km
B*
-4.3645e-5
RAAN
154.2724°
Arg perigee
36.2453°
Mean anomaly
323.8788°
Rev number
38,175

§ Raw data

HAIYANG-2B1 43655U 18081A   26145.16823325 -.00000089  00000+0 -43645-4 0  99932 43655  99.3297 154.2724 0001314  36.2453 323.8788 13.79306559381752

JSON: /api/v1/satellites/43655 · /tle

For live sub-satellite position, see the globe view (requires WebGL).

§ Visibility from observer

Set your observer location to see the next 7 days of passes ≥ 10°. The values pass through the URL so the page stays shareable.

No JS? Fill the form by hand. The geolocation button needs JavaScript.

§ Radio — SatNOGS DB

ModeDescriptionDownlinkUplink
FM S-band telemetry 2.247 GHz

1 transmitter · refreshed weekly from db.satnogs.org